STARLINK-35378

Satellite information

Favourite Embed

Satellite Type and Status

PAYLOADIN ORBIT

Key statistics

Satellite STARLINK-35378 at a glance.

Uptime

32

Days in orbit

Revolutions

≈ 15.3

Per day

Orbit

SSO

Sun Synchronous Orbit

Inclination

97.6

Latest

Satellite identification and parameters

Extended collection of information and parameters for STARLINK-35378.

Object identification

Identified? True

Debris? False

Object name: STARLINK-35378

International designator: 2025-218D

Object number (NORAD): 65794

Object ID (CCSDS): 65794

Country: UNITED STATES OF AMERICA (US)

Current information (Y/N): Y

Orbital parameters

Period: 93.822 minutes

Inclination: 97.6032 deg

SMA: 6839.59 km

Apoapsis: 462.492 km

Periapsis: 460.418 km

RAAN: 161.799 deg

Eccentricy: 0.00015161

Argument of periapsis: 78.6551 deg

Mean anomaly: 281.4862 deg

Mean motion: 15.3482085 rev/day

Mean motion (dot): -0.00418517 rev/day2

B* drag term: -0.01310498 1/REarth

Two-line elements (TLE)

Creation date: Oct. 28, 2025, 2:18 a.m.

Reference frame: TEME

Reference center: EARTH

Epoch: Oct. 27, 2025, 7:19 p.m. UTC

TLE line 0: 0 STARLINK-35378

TLE line 1: 1 65794U 25218D 25300.80527466 -.00418517 00000-0 -13105-1 0 9996

TLE line 2: 2 65794 97.6032 161.7990 0001516 78.6551 281.4862 15.34820850 4964

Live tracking on map

Real-time ground track for satellite STARLINK-35378.

In-orbit conjunctions

There are no conjunctions computed for STARLINK-35378, at the moment. Check back to stay up to date, as we update our databases every day.

Go to all conjunctions

Associated space launch

A batch of 24 satellites for the Starlink mega-constellation - SpaceX's project for space-based Internet communication system.

STARLINK-35378 was lifted into orbit during the mission ‘Falcon 9 Block 5 | Starlink Group 17-11’, on board a Falcon 9 space rocket.

The launch took place on Sept. 26, 2025, 4:26 a.m. from Space Launch Complex 4E.

For more information about the launch, click the button.

Launch to space Falcon 9 Block 5 | Starlink Group 17-11
Falcon 9 Block 5 | Starlink Group 17-11

Agency: SpaceX

Status: Launch Successful

Launch date: Sept. 26, 2025, 4:26 a.m. UTC

Rocket: Falcon 9

Launch pad: Space Launch Complex 4E

Location: Vandenberg SFB, CA, USA

...

Latest news about this satellite

News about space launch
Live coverage: SpaceX to launch 24 Starlink satellites on Falcon 9 rocket from Vandenberg

The Starlink 17-11 mission includes the 475th launch of a flight-proven booster. SpaceX is targeting liftoff from pad 4E at Vandenberg Space Force Base at 9:17 p.m. PDT (12:17 a.m. EDT / 0417 UTC).

News about space launch
Launch Roundup: Kuiper, Starlink, IMAP headline launch manifest

A busy slate of launches is planned for the last full week of September, including… The post Launch Roundup: Kuiper, Starlink, IMAP headline launch manifest appeared first on NASASpaceFlight.com.


Newsletter sign-up

Weekly statistics, charts and insights to help you stay on top of the space industry.